Location: Trois-Rivi�res
(46.3500°N, 72.5500°W)
Time: 10:00:11
(UTC-05:00)

Envisat - Pass Details

Date: 15 October 2017
Orbit: 764 x 766 km, 98.2° (Epoch: 10 December)

Event Time Altitude Azimuth Distance (km) Brightness Sun altitude
Exits shadow 21:23:13 33° 273° (W) 1,270 4.5 -34.5°
Drops below altitude 10° 21:27:29 10° 329° (NNW) 2,315 6.1 -35.2°
Sets 21:30:01 0° 339° (NNW) 3,247 6.9 -35.6°
